Regional Weather Roundup
Issued by NWS State College, PA

Home | Current Version | Previous Version | Text Only | Print | Product List | Glossary On
Versions: 1 2 3 4 5 6 7 8 9 10 11 12 13 14 15 16 17 18 19 20 21 22 23 24 25 26 27 28 29 30 31 32 33 34 35 36 37 38 39 40 41 42 43 44 45 46 47 48 49 50
000
ASUS41 KCTP 251710
RWRCTP

REGIONAL WEATHER ROUNDUP
NATIONAL WEATHER SERVICE STATE COLLEGE PA
100 PM EDT MON SEP 25 2017

Note: "fair" indicates few or no clouds below 12,000 feet with no
significant weather and/or obstructions to visibility.

* = STATION THAT DOES NOT REPORT PRECIPITATION /E.G. RAIN...SNOW...ETC/
    THUNDER OR FOG.

PAZ002>004-007>009-013>016-020>023-029>032-251800-
WESTERN PENNSYLVANIA

CITY           SKY/WX    TMP DP  RH WIND       PRES   REMARKS
ERIE           SUNNY     88  67  49 S7        30.08F
MEADVILLE      SUNNY     85  66  53 S5        30.12F
FRANKLIN*      SUNNY     82  66  57 S7        30.14S
NEW CASTLE     FAIR      84  66  54 SE3       30.11F
BEAVER COUNTY  SUNNY     84  64  51 SE6       30.11F
BUTLER*        MOSUNNY   83  66  56 SE7       30.12F
PITTSBURGH INT CLOUDY    83  65  54 S6        30.10F
PITTSBURGH     MOSUNNY   83  63  50 S3        30.10F
INDIANA*       SUNNY     84  70  61 SW3       30.14F
LATROBE        PTSUNNY   82  68  61 CALM      30.12F
WASHINGTON CO* MOSUNNY   82  64  54 S5        30.11F
$$

PAZ004>006-010>012-017>019-024>028-033>037-041-042-045-046-049>053-251800-
CENTRAL PENNSYLVANIA

CITY           SKY/WX    TMP DP  RH WIND       PRES   REMARKS
BRADFORD       SUNNY     82  62  50 VRB7      30.17S
DUBOIS         MOSUNNY   82  64  54 S5        30.14F
CLEARFIELD     MOSUNNY   84  67  56 CALM      30.13F
JOHNSTOWN      SUNNY     82  62  50 VRB3      30.15F
ALTOONA        SUNNY     83  67  58 CALM      30.12F
STATE COLLEGE  SUNNY     84  68  58 CALM      30.11F
WILLIAMSPORT   SUNNY     86  69  56 VRB3      30.06F
SELINSGROVE    SUNNY     86  71  60 CALM      30.07F
FT INDIANTOWN  MOSUNNY   86  69  55 E3        30.06F
CAPITAL CITY   SUNNY     88  67  49 SE5       30.06S
HARRISBURG     MOSUNNY   88  71  57 S5        30.05F
YORK           SUNNY     87  68  52 VRB3      30.06F
$$

PAZ038>040-043-044-047-048-054-055-060>062-067>071-251800-
EASTERN PENNSYLVANIA

CITY           SKY/WX    TMP DP  RH WIND       PRES   REMARKS
SCRANTON       SUNNY     89  68  49 VRB6      30.09F
MOUNT POCONO   SUNNY     81  67  62 SE10      30.15F
ALLENTOWN      SUNNY     88  69  53 NE7       30.07F
QUAKERTOWN*    SUNNY     86  70  58 E6        30.08S
READING        SUNNY     87  72  60 N6        30.05F
LANCASTER      SUNNY     87  70  56 SE6       30.06S
COATESVILLE    SUNNY     84  68  58 VRB3G13   30.08S
POTTSTOWN      SUNNY     85  70  60 VRB6      30.07F
BLUE BELL      SUNNY     86  68  54 CALM      30.07R
DOYLESTOWN     SUNNY     87  69  54 N6        30.06S
WILLOW GROVE   NOT AVBL
NORTH PHILA    SUNNY     89  68  49 E6        30.06F
PHILADELPHIA   MOSUNNY   88  67  49 E6        30.04F
$$




USA.gov is the U.S. government's official web portal to all federal, state and local government web resources and services.